Weather History for KADC - July, 2013

Change the Weather History Date:

Sunday, July 14, 2013

  Actual Average Record
Temperature  
Mean Temperature 66 °F -  
Max Temperature 69 °F 80 °F 102 °F (1936)
Min Temperature 62 °F 57 °F 46 °F (1987)
Growing Degree Days 16 (Base 50)    
Moisture  
Dew Point 62 °F    
Average Humidity 93    
Maximum Humidity 100    
Minimum Humidity 83    
Precipitation  
Precipitation 1.28 in - - ()
Sea Level Pressure  
Sea Level Pressure 30.12 in    
Wind  
Wind Speed 5 mph (SE)    
Max Wind Speed 9 mph    
Max Gust Speed -    
Visibility 8 miles    
Events Rain , Thunderstorm    
Averages and records for this station are not official NWS values.
T = Trace of Precipitation, MM = Missing Value Source: NWS Daily Summary

Daily Weather History Graph

Daily Weather History Graph

Search for Another Location

Airport or City:

Trip Planner

Search our weather history database for the weather conditions in past years. The results will help you decide how hot, cold, wet, or windy it might be!

Date:

Astronomy

Jul. 14, 2013 Rise Set
Actual Time 5:42 AM CDT 9:10 PM CDT
Civil Twilight 5:04 AM CDT 9:47 PM CDT
Nautical Twilight 4:15 AM CDT 10:37 PM CDT
Astronomical Twilight 3:10 AM CDT 11:41 PM CDT
Moon 12:26 PM CDT (7/14) 11:55 PM CDT (7/14)
Length of Visible Light 16h 43m
Length of Day
15h 28m
Waxing Crescent, 35% of the Moon is Illuminated
Jul 14
Waxing Crescent
Jul 15
First Quarter
Jul 22
Full
Jul 29
Last Quarter
Aug 6
New

Hourly Weather History & Observations

Time (CDT) Temp. Dew Point Humidity Pressure Visibility Wind Dir Wind Speed Gust Speed Precip Events Conditions
12:15 AM 69.8 °F 64.4 °F 83% 30.04 in 10.0 mi SSE 8.1 mph - N/A   Overcast
12:35 AM 68.0 °F 62.6 °F 83% 30.04 in 10.0 mi SSE 8.1 mph - N/A   Mostly Cloudy
12:52 AM 68.0 °F 62.6 °F 83% 30.04 in 10.0 mi SSE 4.6 mph - N/A   Clear
1:14 AM 68.0 °F 62.6 °F 83% 30.04 in 10.0 mi SSE 4.6 mph - N/A   Clear
1:35 AM 66.2 °F 60.8 °F 83% 30.03 in 10.0 mi SSE 5.8 mph - N/A   Clear
1:53 AM 66.2 °F 60.8 °F 83% 30.03 in 10.0 mi SSE 5.8 mph - N/A   Clear
2:15 AM 66.2 °F 60.8 °F 83% 30.03 in 10.0 mi SSE 4.6 mph - N/A   Clear
2:35 AM 64.4 °F 60.8 °F 88% 30.03 in 10.0 mi SE 3.5 mph - N/A   Clear
2:53 AM 64.4 °F 60.8 °F 88% 30.02 in 10.0 mi SSE 5.8 mph - N/A   Clear
3:14 AM 64.4 °F 59.0 °F 83% 30.03 in 10.0 mi SSE 3.5 mph - N/A   Clear
3:35 AM 64.4 °F 59.0 °F 83% 30.03 in 10.0 mi Calm Calm - N/A   Clear
3:52 AM 64.4 °F 60.8 °F 88% 30.03 in 10.0 mi Calm Calm - N/A   Clear
4:15 AM 62.6 °F 59.0 °F 88% 30.04 in 10.0 mi Calm Calm - N/A   Clear
4:35 AM 62.6 °F 59.0 °F 88% 30.03 in 10.0 mi ESE 3.5 mph - N/A   Clear
4:53 AM 64.4 °F 59.0 °F 83% 30.03 in 10.0 mi ESE 3.5 mph - N/A   Clear
5:15 AM 62.6 °F 59.0 °F 88% 30.04 in 10.0 mi East 3.5 mph - N/A   Clear
5:35 AM 62.6 °F 59.0 °F 88% 30.03 in 10.0 mi ESE 5.8 mph - N/A   Clear
5:53 AM 62.6 °F 59.0 °F 88% 30.03 in 10.0 mi ESE 4.6 mph - N/A   Clear
6:15 AM 62.6 °F 60.8 °F 94% 30.02 in 10.0 mi SE 4.6 mph - N/A   Clear
6:35 AM 64.4 °F 60.8 °F 88% 30.03 in 10.0 mi SE 4.6 mph - N/A   Clear
6:52 AM 64.4 °F 60.8 °F 88% 30.05 in 10.0 mi SE 3.5 mph - N/A   Clear
7:15 AM 66.2 °F 60.8 °F 83% 30.05 in 10.0 mi SE 6.9 mph - N/A   Scattered Clouds
7:35 AM 66.2 °F 60.8 °F 83% 30.06 in 10.0 mi SSE 5.8 mph - N/A Thunderstorm Mostly Cloudy
7:53 AM 66.2 °F 60.8 °F 83% 30.06 in 10.0 mi SE 6.9 mph - N/A Thunderstorm Overcast
8:15 AM 66.2 °F 60.8 °F 83% 30.08 in 10.0 mi SSE 4.6 mph - N/A Thunderstorm Overcast
8:35 AM 66.2 °F 60.8 °F 83% 30.09 in 10.0 mi SSE 5.8 mph - N/A Thunderstorm Overcast
8:53 AM 64.4 °F 60.8 °F 88% 30.10 in 10.0 mi SSE 5.8 mph - N/A Thunderstorm Overcast
9:11 AM 64.4 °F 62.6 °F 94% 30.10 in 7.0 mi Calm Calm - 0.01 in Rain , Thunderstorm Light Thunderstorms and Rain
9:35 AM 64.4 °F 62.6 °F 94% 30.11 in 1.2 mi ESE 5.8 mph - 0.50 in Rain , Thunderstorm Heavy Thunderstorms and Rain
9:53 AM 62.6 °F 62.6 °F 100% 30.11 in 5.0 mi SE 4.6 mph - 0.59 in Rain , Thunderstorm Thunderstorms and Rain
10:15 AM 62.6 °F 62.6 °F 100% 30.12 in 5.0 mi SE 5.8 mph - 0.07 in Rain , Thunderstorm Thunderstorms and Rain
10:35 AM 62.6 °F 60.8 °F 94% 30.14 in 4.0 mi ESE 4.6 mph - 0.15 in Rain , Thunderstorm Heavy Thunderstorms and Rain
10:52 AM 62.6 °F 60.8 °F 94% 30.14 in 4.0 mi East 3.5 mph - 0.22 in Rain Heavy Rain
11:14 AM 62.6 °F 60.8 °F 94% 30.12 in 5.0 mi ESE 5.8 mph - 0.06 in Rain Rain
11:35 AM 62.6 °F 60.8 °F 94% 30.11 in 4.0 mi East 6.9 mph - 0.08 in Rain Rain
11:53 AM 62.6 °F 60.8 °F 94% 30.12 in 4.0 mi ESE 6.9 mph - 0.08 in Rain Light Rain
12:15 PM 62.6 °F 62.6 °F 100% 30.12 in 5.0 mi SE 8.1 mph - N/A   Mostly Cloudy
12:35 PM 62.6 °F 62.6 °F 100% 30.13 in 7.0 mi SSE 9.2 mph - N/A Rain Light Rain
12:53 PM 62.6 °F 62.6 °F 100% 30.13 in 7.0 mi SSE 6.9 mph - 0.02 in Rain Rain
1:15 PM 62.6 °F 62.6 °F 100% 30.14 in 5.0 mi SSE 6.9 mph - 0.07 in Rain Heavy Rain
1:34 PM 62.6 °F 62.6 °F 100% 30.14 in 7.0 mi South 5.8 mph - 0.10 in Rain Light Rain
1:53 PM 62.6 °F 62.6 °F 100% 30.15 in 7.0 mi SE 6.9 mph - 0.12 in Rain Rain
2:15 PM 64.4 °F 62.6 °F 94% 30.14 in 7.0 mi SE 8.1 mph - 0.02 in Rain Light Rain
2:35 PM 64.4 °F 62.6 °F 94% 30.15 in 7.0 mi South 6.9 mph - 0.04 in Rain Rain
2:52 PM 64.4 °F 62.6 °F 94% 30.16 in 5.0 mi South 4.6 mph - 0.04 in Rain Rain
3:14 PM 64.4 °F 62.6 °F 94% 30.17 in 4.0 mi South 5.8 mph - 0.01 in Rain Rain
3:35 PM 64.4 °F 62.6 °F 94% 30.17 in 7.0 mi South 6.9 mph - 0.02 in Rain Light Rain
3:53 PM 64.4 °F 62.6 °F 94% 30.17 in 7.0 mi South 8.1 mph - 0.04 in Rain Rain
3:54 PM 64.4 °F 62.6 °F 94% 30.17 in 7.0 mi South 8.1 mph - 0.05 in Rain Rain
4:38 PM 64.4 °F 62.6 °F 94% 30.16 in 5.0 mi SE 6.9 mph - 0.14 in Rain Light Rain
4:53 PM 64.4 °F 62.6 °F 94% 30.16 in 7.0 mi SSE 3.5 mph - 0.15 in Rain Light Rain
5:15 PM 64.4 °F 62.6 °F 94% 30.16 in 7.0 mi South 3.5 mph - 0.01 in Rain Light Rain
5:34 PM 64.4 °F 64.4 °F 100% 30.15 in 7.0 mi SSE 4.6 mph - 0.01 in Rain Light Rain
5:53 PM 64.4 °F 64.4 °F 100% 30.15 in 10.0 mi South 3.5 mph - 0.01 in   Light Drizzle
6:14 PM 64.4 °F 64.4 °F 100% 30.16 in 10.0 mi Calm Calm - N/A   Overcast
6:35 PM 64.4 °F 64.4 °F 100% 30.16 in 10.0 mi Calm Calm - N/A   Overcast
6:53 PM 64.4 °F 64.4 °F 100% 30.17 in 10.0 mi Calm Calm - N/A   Overcast
7:14 PM 64.4 °F 62.6 °F 94% 30.17 in 10.0 mi Calm Calm - N/A   Overcast
7:35 PM 66.2 °F 64.4 °F 94% 30.17 in 10.0 mi Calm Calm - N/A   Overcast
7:52 PM 66.2 °F 64.4 °F 94% 30.17 in 10.0 mi ESE 3.5 mph - N/A   Overcast
8:15 PM 64.4 °F 64.4 °F 100% 30.18 in 7.0 mi Calm Calm - N/A   Overcast
8:35 PM 64.4 °F 64.4 °F 100% 30.18 in 7.0 mi Calm Calm - N/A   Overcast
8:52 PM 64.4 °F 64.4 °F 100% 30.18 in 7.0 mi Calm Calm - N/A   Overcast
9:15 PM 64.4 °F 64.4 °F 100% 30.19 in 5.0 mi Calm Calm - N/A   Overcast
9:35 PM 64.4 °F 62.6 °F 94% 30.20 in 7.0 mi Calm Calm - N/A   Overcast
9:53 PM 64.4 °F 64.4 °F 100% 30.20 in 5.0 mi Calm Calm - N/A   Overcast
10:14 PM 64.4 °F 64.4 °F 100% 30.21 in 7.0 mi ENE 3.5 mph - N/A   Overcast
10:35 PM 64.4 °F 64.4 °F 100% 30.21 in 4.0 mi NE 3.5 mph - N/A   Overcast
10:52 PM 64.4 °F 64.4 °F 100% 30.21 in 4.0 mi Calm Calm - N/A   Overcast
11:15 PM 64.4 °F 64.4 °F 100% 30.21 in 4.0 mi Calm Calm - N/A   Overcast
11:35 PM 64.4 °F 64.4 °F 100% 30.21 in 3.0 mi Calm Calm - N/A   Overcast
11:52 PM 64.4 °F 64.4 °F 100% 30.21 in 3.0 mi East 3.5 mph - N/A   Overcast